User: anonymous   Login
Location: Unspecified
(0.0000°N, 0.0000°E)
Time: 09:45:23
(UTC+00:00)
Language:

PAKSAT 1R - Orbit

View from above orbital plane
View from above orbital plane
View from above satellite
View from above satellite

Ground track
Ground track

The orbit data is extracted from the following two-line orbital elements,

1 37779U 11042A   16212.80340502  .00000129  00000-0  00000+0 0  9996
2 37779   0.0290 125.7100 0001778   0.1416 150.2065  1.00273130 18091
Epoch (UTC): 30 July 2016 19:16:54
Eccentricity: 0.0001778
inclination: 0.0290°
perigee height: 35778 km
apogee height: 35793 km
right ascension of ascending node: 125.7100°
argument of perigee: 0.1416°
revolutions per day: 1.00273130
mean anomaly at epoch: 150.2065°
orbit number at epoch: 1809

The dashed part of the orbit path shows where the satellite is in the earth's shadow,  

DLR